カタログに戻る

BREEZE-M DEB

LostHEO
NORAD 35539·DEBRIS·🇷🇺 Russia

打ち上げ Feb 28, 2006 から Baikonur Cosmodrome

Loading…

次のパス (今後24時間)

TLE

古いSource: Space-Track

元期: Jun 26, 2010, 19:38 UTC

1 35539U 06006CG  10177.81856513  .00063014  00000-0  23288-1 0  9998
2 35539  51.6822 359.2185 4991758 173.0990 197.9710  5.56242729 41401

AllMySatでBREEZE-M DEBをリアルタイム追跡

Download on the App Store